ARIANE 5 R/B, 40665

Orbit data source: Space-Track

ARIANE 5 R/B, 40665 is space debris in HEO originally from a launch on Wed, 27 May 2015 UTC launched from the French Guiana (FRGUI). Debris objects in space refer to the collection of defunct objects orbiting the Earth. Examples of debris include non-operational satellites, rocket bodies, and fragments generated from explosions, collisions, or faulty payload assembly.

Loading next visibility...
ARIANE 5 R/B details
Identifier
40665, 2015-026C
Orbit
HEO
Last TLE update8 hours ago
Origin
Flag of FRArianespace (FR)
ManufacturerAirbus Safran
MissionSpacecraft
Bus & MotorESC-A, Unknown motor
Mass~5,000 kg wet, ~5,000 kg dry
Launch date (UTC)
2015-05-27 (10 years ago)
Launch vehicleUnknown
Launch site
French Guiana (FRGUI)
Object type
Payload
Rocket body
Debris
Shape & HBRCyl + 1 Nozzle, 7 m
Radar Cross Section41.627 m², Large (>1 m²)

Expand to show TLE details & history

TLE from 8 hours ago
0 ARIANE 5 R/B
1 40665U 15026C   24361.12645531  .00004314  00000-0  11405-2 0  9993
2 40665   3.6735 249.2380 6988211  89.4358 343.2659  2.65288851 85412
Epoch: 2024-12-26T03:02Z
Definitive object data (Epoch: 2024-12-26T03:02:05.738Z)
Latitude
Longitude109.1692°
Altitude4,759.156 km
Speed7.314 km/s
True Right ascension16h 39m 12s
True Declination0° 00' 00"
Sunlit
Object was in daylight at TLE epoch
Visualization TLE readout
Latitude-2.57964°
Longitude64.51664°
Altitude15,448.667 km
Speed4.294 km/s
Apparent Right ascension14h 23m 53s
Apparent Declination-15° 05' 44"
Sunlit
Object is in daylight
Visualization observer readout
Local Sidereal Time10:37:08
Azimuth123.792° SE
Elevation13.861°
Doppler factor1
Orbital elements
Apogee altitude31,076.938 km
Perigee altitude262.161 km
Semi-major axis22,047.686 km
Eccentricity0.6988211
Inclination3.6735°
RAAN249.238°
Arg. of periapsis89.4358°
True anomaly270.80929°
Mean anomaly343.2659°
Eccentric anomaly314.90854°
Mean motion0.66298 °/min
BSTAR0.0011405
Orbital period543.01 mins
Loading maneuver chart data...
Loading historical data...
Loading historical data...
Loading historical data...
Loading historical data...
Loading historical data...
Loading historical data...
Loading historical data...
Other satellites on launch #26 in the year 2015 (2015-05-27 UTC)

ARIANE 5 R/B Visibility forecast

Observer location: undefined°, undefined

Span
Click to sort rows by Start time (UTC) header in descending order
Start Az.
Max El. time (UTC)
Max El. Az.
Max El.
End time (UTC)
End Az.
10 mins2024-12-26 11:15:48.798Z123.818° SE2024-12-26 11:15:48.798Z123.818° SE13.457°2024-12-26 11:25:48.798Z121.19° SE
252 mins2024-12-27 07:03:48.798Z214.205° SW2024-12-27 11:15:48.798Z179.3° S32.065°2024-12-27 11:15:48.798Z179.3° S
|